Location: La Oliva
(42.2466°N, 2.9955°E)
Time: 11:29:01
(UTC+00:00)

FALCON 9 DEB - Pass Details

Date: 22 April 2021
Orbit: 364 x 382 km, 53.0° (Epoch: 11 May)

Event Time Altitude Azimuth Distance (km) Brightness Sun altitude
Rises 19:16:36 0° 218° (SW) 2,188 6.9 -7.6°
Reaches altitude 10° 19:18:40 10° 211° (SSW) 1,345 5.7 -7.9°
Maximum altitude 19:21:32 44° 138° (SE) 516 3.1 -8.4°
Drops below altitude 10° 19:24:26 10° 64° (ENE) 1,356 5.3 -8.9°
Enters shadow 19:26:30 - 58° (ENE) 2,201 6.4 -9.2°
